Regional Weather Roundup
Issued by NWS Green Bay, WI

Home | Current Version | Previous Version | Text Only | Print | Product List | Glossary On
Versions: 1 2 3 4 5 6 7 8 9 10 11 12 13 14 15 16 17 18 19 20 21 22 23 24 25 26 27 28 29 30 31 32 33 34 35 36 37 38 39 40 41 42 43 44 45 46 47 48 49 50
000
ASUS43 KGRB 011000
RWRGRB

NORTH-CENTRAL AND NORTHEAST WISCONSIN REGIONAL WEATHER ROUNDUP
NATIONAL WEATHER SERVICE GREEN BAY WI
500 AM CDT SAT OCT 01 2016

WIZ005-009-010>012-018-019-011100-
NORTH CENTRAL WISCONSIN

CITY           SKY/WX    TMP DP  RH WIND       PRES   REMARKS
IRONWOOD       CLEAR     44  44 100 CALM      30.23S
MANITOWISH WTR NOT AVBL
ARBOR VITAE    NOT AVBL
EAGLE RIVER    NOT AVBL
LAND O LAKES   NOT AVBL
RHINELANDER    PTCLDY    53  51  93 NE3       30.20S
PHILLIPS       NOT AVBL
ANTIGO         NOT AVBL
TOMAHAWK       NOT AVBL
MERRILL        NOT AVBL
$$

WIZ013-073-011100-
NORTHEAST WISCONSIN

CITY           SKY/WX    TMP DP  RH WIND       PRES   REMARKS
IRON MOUNTAIN  MOCLDY    56  50  80 CALM      30.19S
MARINETTE      CLOUDY    59  55  87 NE7       30.16S
$$

WIZ017-030-035>037-045-011100-
CENTRAL WISCONSIN

CITY           SKY/WX    TMP DP  RH WIND       PRES   REMARKS
MEDFORD        NOT AVBL
WAUSAU         MOCLDY    54  52  93 VRB5      30.16S
MOSINEE        NOT AVBL
MARSHFIELD     MOCLDY    57  51  80 N8        30.16R
WISC RAPIDS    CLOUDY    59  55  87 NE6       30.15S
STEVENS POINT  NOT AVBL
WAUPACA        NOT AVBL
SHAWANO        NOT AVBL
CLINTONVILLE   NOT AVBL
WAUTOMA        CLOUDY    58  57  97 NE8       30.13S
$$

WIZ038-039-048-051-011100-
FOX VALLEY

CITY           SKY/WX    TMP DP  RH WIND       PRES   REMARKS
NWS GREEN BAY  CLOUDY    60  59  96 NE8       30.13F
APPLETON       NOT AVBL
OSHKOSH        CLOUDY    59  57  93 E9        30.11S
FOND DU LAC    CLOUDY    59  57  93 NE7       30.10F
$$

WIZ022-050-052-011100-
EAST CENTRAL WISCONSIN

CITY           SKY/WX    TMP DP  RH WIND       PRES   REMARKS
EPHRAIM        NOT AVBL
WASHINGTON ISL NOT AVBL
STURGEON BAY   CLOUDY    61  55  81 NE6       30.15S
MANITOWOC      NOT AVBL
SHEBOYGAN      CLOUDY    59  57  93 NE8       30.10F
$$

LMZ563-521-522-541>543-011100-
LAKESHORE

STATION/POSITION TIME  TEMP    WIND        PRES    VSBY  WAVE
                       AIR SEA DIR/SP/G                  HT/PER
                 (UTC) (F)     (DEG/KT/KT) (MB)    (MI)  (FT/S)
SHEBOYGAN LKSHOR 0900   60      70/ 12/ 13 1019.1F
KEWAUNEE LKSHORE 0900   61      80/ 10/ 15 1019.8F
NORTHPORT PIER   0900   63      80/ 12/ 16 1021.3S
N MID LAKE BUOY  0850   63 64   80/ 16/ 17 1020.7F         4/ 5
S GREEN BAY BUOY 0900   62 62   60/ 14/ 17 1020.3F
SISTER BAY LKSHO 0908   62     120/  8/ 10   N/A
CHAMBERS ISLAND  0900   62      30/ 11/ 15 1021.0S
MENOMINEE LKSHOR 0900   62      40/ 13/ 14 1020.3F
$$




USA.gov is the U.S. government's official web portal to all federal, state and local government web resources and services.